Content
SEND FEEDBACK

Daily
Averages
Monthly
Summary
United States of America

PICACHO, ARIZONA


Home > North America > United States > Arizona
Elevation: 1570 feet     Latitude: 32 45N     Longitude: 111 33W

WEATHER
 
SELECT A DAY
Number of Records: 441,340;   Date Range: 1/1/95 - 7/29/14
 
SHARE

PRINT THIS DATA

[ ← Previous Day ]
WEATHER ALMANAC - FEBRUARY 13, 2013
[ Next Day → ]
[ °C ]   °F
Weather ElementAverageHighLow
Temperature44 °F60.8 °F (3:55 pm)28.4 °F (5:15 am)
Dewpoint23.4 °F28.4 °F (9:55 am)17.6 °F (7:15 pm)
Humidity48.6 %86 % (5:15 am)22 % (5:35 pm)
Barometer30.16 in30.22 in (8:55 am)30.10 in (5:15 pm)
Wind Speed1.9 mph6.9 mph (4:15 pm)
Weather ElementAverage
Visibility10 mi
Wind DirectionESE (98 °)

Weather ElementTotal
Precipitation---
Heating Degree Days20.4 (Base 65)
Averaged from 71 records on February 13, 2013
WEATHER CONDITIONS BREAKOUT
WIND DIRECTION BREAKOUT
WEATHER BY HOUR - FEBRUARY 13, 2013
[ °C ]   °F
Local TimeTemperatureDewpointHumidityBarometerVisibilityWind DirectionWind SpeedGust SpeedPrecipitationEventsConditions
12:35 AM39.2 °F24.8 °F56 %30.20 in10.0 miCalmClear
12:55 AM37.4 °F24.8 °F60 %30.20 in10.0 miCalmClear
1:15 AM35.6 °F24.8 °F65 %30.19 in10.0 miCalmClear
1:35 AM37.4 °F24.8 °F60 %30.19 in10.0 miCalmClear
1:55 AM35.6 °F24.8 °F65 %30.19 in10.0 miCalmClear
2:15 AM37.4 °F24.8 °F60 %30.19 in10.0 miCalmClear
2:35 AM35.6 °F24.8 °F65 %30.18 in10.0 miCalmClear
2:55 AM35.6 °F24.8 °F65 %30.18 in10.0 miWNW (300°)5.8 mphClear
3:15 AM37.4 °F24.8 °F60 %30.18 in10.0 miWNW (290°)5.8 mphClear
3:35 AM37.4 °F23.0 °F56 %30.17 in10.0 miCalmClear
3:55 AM37.4 °F24.8 °F60 %30.17 in10.0 miESE (110°)4.6 mphClear
4:15 AM35.6 °F24.8 °F65 %30.17 in10.0 miCalmClear
4:35 AM33.8 °F24.8 °F70 %30.17 in10.0 miCalmClear
4:55 AM33.8 °F24.8 °F70 %30.17 in10.0 miCalmClear
5:15 AM28.4 °F24.8 °F86 %30.18 in10.0 miCalmClear
5:35 AM30.2 °F23.0 °F75 %30.18 in10.0 miCalmClear
5:55 AM30.2 °F24.8 °F80 %30.18 in10.0 miNNW (340°)3.5 mphClear
6:15 AM32.0 °F24.8 °F75 %30.18 in10.0 miCalmClear
6:35 AM33.8 °F24.8 °F70 %30.19 in10.0 miCalmClear
6:55 AM30.2 °F21.2 °F69 %30.19 in10.0 miCalmClear
7:15 AM28.4 °F23.0 °F80 %30.19 in10.0 miCalmClear
7:35 AM30.2 °F23.0 °F75 %30.19 in10.0 miNE (40°)3.5 mphClear
7:55 AM32.0 °F24.8 °F75 %30.19 in10.0 miNE (40°)3.5 mphClear
8:15 AM35.6 °F24.8 °F65 %30.20 in10.0 miNE (50°)3.5 mphClear
8:35 AM35.6 °F24.8 °F65 %30.21 in10.0 miEast (100°)3.5 mphClear
8:55 AM33.8 °F26.6 °F75 %30.22 in10.0 miCalmClear
9:15 AM35.6 °F26.6 °F70 %30.22 in10.0 miCalmClear
9:35 AM39.2 °F26.6 °F61 %30.22 in10.0 miCalmClear
9:55 AM35.6 °F28.4 °F75 %30.22 in10.0 miSSE (150°)3.5 mphClear
10:15 AM44.6 °F26.6 °F49 %30.22 in10.0 miSE (140°)3.5 mphClear
10:35 AM46.4 °F26.6 °F46 %30.22 in10.0 miCalmClear
10:55 AM48.2 °F26.6 °F43 %30.22 in10.0 miCalmClear
11:15 AM48.2 °F26.6 °F43 %30.22 in10.0 miCalmClear
11:35 AM50.0 °F26.6 °F40 %30.21 in10.0 miCalmClear
11:55 AM48.2 °F24.8 °F40 %30.20 in10.0 miCalmClear
12:15 PM53.6 °F24.8 °F33 %30.19 in10.0 miCalmClear
12:35 PM55.4 °F24.8 °F31 %30.18 in10.0 miSSW (200°)3.5 mphClear
12:55 PM55.4 °F23.0 °F29 %30.17 in10.0 miCalmClear
1:15 PM55.4 °F21.2 °F26 %30.16 in10.0 miWest (270°)5.8 mphClear
1:35 PM55.4 °F21.2 °F26 %30.15 in10.0 miCalmClear
1:55 PM57.2 °F21.2 °F25 %30.14 in10.0 miCalmClear
2:15 PM53.6 °F21.2 °F28 %30.13 in10.0 miCalmClear
2:35 PM53.6 °F21.2 °F28 %30.13 in10.0 miSE (140°)3.5 mphClear
2:55 PM57.2 °F21.2 °F25 %30.12 in10.0 miWSW (250°)5.8 mphClear
3:15 PM59.0 °F21.2 °F23 %30.12 in10.0 miCalmClear
3:35 PM59.0 °F23.0 °F25 %30.12 in10.0 miWest (270°)3.5 mphClear
3:55 PM60.8 °F24.8 °F25 %30.11 in10.0 miWNW (300°)4.6 mphClear
4:15 PM60.8 °F24.8 °F25 %30.11 in10.0 miWest (270°)6.9 mphClear
4:35 PM60.8 °F24.8 °F25 %30.11 in10.0 miWest (270°)5.8 mphClear
4:55 PM60.8 °F23.0 °F23 %30.11 in10.0 miWNW (300°)6.9 mphClear
5:15 PM60.8 °F23.0 °F23 %30.10 in10.0 miWNW (300°)4.6 mphClear
5:35 PM60.8 °F21.2 °F22 %30.10 in10.0 miNW (310°)5.8 mphClear
5:55 PM57.2 °F19.4 °F23 %30.10 in10.0 miWNW (290°)5.8 mphClear
6:15 PM57.2 °F19.4 °F23 %30.10 in10.0 miNW (310°)5.8 mphClear
6:35 PM55.4 °F19.4 °F25 %30.11 in10.0 miNW (310°)4.6 mphClear
6:55 PM53.6 °F19.4 °F26 %30.11 in10.0 miNW (310°)3.5 mphClear
7:15 PM51.8 °F17.6 °F26 %30.11 in10.0 miNW (310°)3.5 mphClear
7:35 PM50.0 °F19.4 °F30 %30.11 in10.0 miNW (320°)4.6 mphClear
7:55 PM48.2 °F19.4 °F32 %30.11 in10.0 miNW (310°)3.5 mphClear
8:15 PM46.4 °F19.4 °F34 %30.12 in10.0 miCalmClear
8:35 PM39.2 °F21.2 °F49 %30.12 in10.0 miCalmClear
8:55 PM44.6 °F21.2 °F39 %30.12 in10.0 miNorth (360°)3.5 mphClear
9:15 PM44.6 °F21.2 °F39 %30.12 in10.0 miCalmClear
9:35 PM44.6 °F21.2 °F39 %30.12 in10.0 miCalmClear
9:55 PM44.6 °F23.0 °F43 %30.12 in10.0 miCalmClear
10:15 PM33.8 °F23.0 °F65 %30.12 in10.0 miCalmClear
10:35 PM35.6 °F23.0 °F60 %30.12 in10.0 miCalmClear
10:55 PM37.4 °F23.0 °F56 %30.12 in10.0 miCalmClear
11:15 PM39.2 °F23.0 °F52 %30.13 in10.0 miCalmClear
11:35 PM39.2 °F21.2 °F49 %30.12 in10.0 miCalmClear
11:55 PM33.8 °F23.0 °F65 %30.12 in10.0 miCalmClear
Hourly data recorded from KCGZ, located miles away from Picacho, Arizona







STORIES FROM OUR PARTNERS